Showing default

RESURS O1, 23342

Orbit data source: Space-Track

RESURS O1, 23342 is a payload satellite owned by Priroda (CIS) in SSO that was launched on Fri, 04 Nov 1994 UTC via a ZENIT-2 launch vehicle from the Tyuratam Missile And Space Complex (TTMTR). Payload-class satellites include a variety of spacecraft equipped with specific instruments for various scientific and technological missions. These include communications satellites like Starlink; space stations such as the ISS; scientific satellites like the Hubble; Earth observation satellites from companies like Planet Labs, Umbra, and HawkEye 360; GPS; miniature CubeSats for education and research; and military/defense satellites.

Loading next visibility...
Identifier
23342, 1994-074A
Orbit
SSO
Country
Flag of CISCIS
Related business
Manufacturer
VNIIEM
Mission
Civil Imaging
Bus & Motor
RESURS-O, Unknown motor
Mass
1,900 kg wet, 1,900 kg dry
Launch date (UTC)
1994-11-04 (31 years ago)
Launch vehicle
ZENIT-2
Launch site
Tyuratam Missile And Space Complex (TTMTR)
Object type
Payload
Rocket body
Debris
Shape & HBR
Cyl + 2 Pan, 5.8 m
Radar Cross Section
11.656 m², Large (>1 m²)

Expand to show TLE details & history
Last TLE update: 8 hours ago

TLE from 8 hours ago
0 RESURS O1
1 23342U 94074A   25309.96254922  .00001054  00000-0  13068-3 0  9997
2 23342  97.6808 331.7501 0002187  91.2241 268.9224 14.84646870670803
Epoch: 2025-11-05T23:06Z
TLE epoch observation values (Epoch: 2025-11-05T23:06:04.252Z)
Latitude
-0.0001°
Longitude
-60.1953°
Altitude
617.758 km
Speed
7.55 km/s
True Right ascension
22h 07m 00s
True Declination
0° 00' 00"
Sunlit
Object was in daylight at epoch
Visualization orbit readout
Latitude
Unknown
Longitude
Unknown
Altitude
Unknown
Speed
Unknown
Apparent Right ascension
Unknown
Apparent Declination
Unknown
Sunlit
N/A
Visualization observer readout
Local Sidereal Time
02:39:40
Azimuth
Unknown
Elevation
Unknown
Doppler factor
Unknown
Orbital elements
Apogee altitude
613.248 km
Perigee altitude
610.191 km
Semi-major axis
6,989.856 km
Eccentricity
0.00022
Inclination
97.6808°
RAAN
331.7501°
Arg. of periapsis
91.2241°
True anomaly
268.89734°
Mean anomaly
268.9224°
Eccentric anomaly
268.90987°
Mean motion
3.71399 °/min
Orbital period
96.93 mins
BSTAR
0.00013068
Loading maneuver chart data...
Computing Atmospheric mass density...

Documentation

Showing up to 5 results
|